Zurück zum Katalog

STARLINK-34322

AktivKommunikationVLEO
NORAD 64702·PAYLOAD·🇺🇸 United States

Gestartet Jun 28, 2025 von Vandenberg Space Force Base

Loading…

Nächste Überflüge (nächste 24 Stunden)

TLE

AktuellSource: CelesTrak SupGP

Epoche: Sep 15, 2026, 03:12 UTC

1 64702C 25142G   26258.13381944 -.00047248  00000+0 -16438-2 0  2587
2 64702  70.0012 195.2471 0003000 271.5774 171.1123 15.29599212    18

Verfolge STARLINK-34322 in Echtzeit mit AllMySat

Download on the App Store